Погода в Катанде

Россия / Республика Алтай     50°09′53″N   86°10′39″E
темп.,
°C
ветер,
м/с
пор.,
м/с
влажн.,
%
обл.,
%
осадки,
мм/ч
давл.,
гПа
погр.,
м
11 мая, вт
вт1101:00+5зюз2390100 4.0 1010194
04:00+4ююв129547 0.8 100958
07:00+5св0186100 0.8 100853
10:00+7з4478100 1.1 1008781
13:00+5ю228770 7.2 1010373
16:00+8з336981 0.8 10081001
19:00+7з237973 1.9 1010604
22:00+5зсз2289100 0.8 1012202
12 мая, ср
ср1201:00+3зсз2298100 1.8 1013347
04:00+2з2293100 0.8 1013459
07:00+2зсз129095 1.3 1014324
10:00+4зсз1276100 0.4 1013812
13:00+4ю1276100 2.3 1013663
16:00+3ююз1186100 2.4 1014399
19:00+3юз1290100 4.9 1015441
22:00+2зюз2299100 1.5 1017159
13 мая, чт
чт1301:00+2з2297100 1.8 1017249
04:00+1з1298100 0.5 1017263
07:00+1з1299100 1.3 1018242
10:00+2зюз118898 0.5 1017490
13:00+4св018197 1.2 1016658
16:00+6всв016632 0.8 1014956
19:00+7ююз015813 1.4 1013987
22:00+3юз117998 0.8 101412
14 мая, пт
пт1401:00+2юз2292100 1.1 101539
04:00+1с0192100 0.0 101415
07:00+3зюз1187100 0.0 1013146
10:00+4юз2177100 0.2 1013688
13:00+3з2293100 2.2 1015470
16:00+5ссз137597 3.5 1016811
19:00+3с347884 4.1 1019653
22:000ссв33876 0.1 102530
15 мая, сб
сб1501:00−1св22865 0.1 102622
04:00−2всв229153 0.0 102726
07:000в127966 0.0 1027335
10:00+3в226236 0.0 1026752
13:00+8всв22495 0.0 10231135
16:00+10всв224460 0.0 10221421
19:00+9св224799 0.0 10221068
22:00+5св226634 0.0 102415